Regional Weather Roundup
Issued by NWS Little Rock, AR

Home | Current Version | Previous Version | Graphics & Text | Print | Product List | Glossary On
Versions: 1 2 3 4 5 6 7 8 9 10 11 12 13 14 15 16 17 18 19 20 21 22 23 24 25 26 27 28 29 30 31 32 33 34 35 36 37 38 39 40 41 42 43 44 45 46 47 48 49 50
000
ASUS44 KLZK 280505
RWRLZK

WEATHER ROUNDUP FOR ARKANSAS
NATIONAL WEATHER SERVICE LITTLE ROCK AR
1200 AM CDT THU MAY 28 2015

NOTE: "FAIR" INDICATES FEW OR NO CLOUDS BELOW 12,000 FEET WITH NO
SIGNIFICANT WEATHER AND/OR OBSTRUCTIONS TO VISIBILITY.

ARZ001-003-010-029-280600-
NORTHWEST ARKANSAS

CITY           SKY/WX    TMP DP  RH WIND       PRES   REMARKS
FAYETTEVILLE   CLOUDY    64  64 100 S6        30.11F
FORT SMITH     MOCLDY    71  66  84 CALM      30.07R
HARRISON       CLOUDY    66  65  96 SE8       30.13R
BENTONVILLE    CLOUDY    68  63  83 CALM      30.11S
ROGERS         CLOUDY    66  64  93 SE3       30.12R
SILOAM SPGS    CLOUDY    66  57  72 E5        30.12R
HIGHFILL       CLOUDY    68  64  87 CALM      30.11R
$$

ARZ004-005-016-280600-
NORTH CENTRAL ARKANSAS

CITY           SKY/WX    TMP DP  RH WIND       PRES   REMARKS
BATESVILLE     PTCLDY    70  66  88 E3        30.13R
FLIPPIN        MOCLDY    70  66  88 CALM      30.10R
MTN HOME       MOCLDY    70  68  93 S3        30.11R
$$

ARZ040-041-280600-
WEST CENTRAL ARKANSAS

CITY           SKY/WX    TMP DP  RH WIND       PRES   REMARKS
MENA           CLEAR     70  68  94 CALM      30.12R
MOUNT IDA      CLEAR     69  67  93 CALM      30.09R
$$

ARZ009-017-025-026-028-280600-
NORTHEAST ARKANSAS

CITY           SKY/WX    TMP DP  RH WIND       PRES   REMARKS
JONESBORO      CLEAR     68  67  96 S3        30.13S
NEWPORT        CLEAR     70  69  96 SE7       30.14R
WALNUT RIDGE   CLEAR     70  64  83 SE6       30.13R
BLYTHEVILLE    MOCLDY    70  69  97 SE5       30.14R
$$

ARZ022-023-033-042-044-280600-
CENTRAL ARKANSAS

CITY           SKY/WX    TMP DP  RH WIND       PRES   REMARKS
LITTLE ROCK    CLEAR     73  68  84 SE3       30.11S
JACKSONVILLE   CLEAR     71  70  98 E3        30.10S
SEARCY         CLEAR     70  68  93 SE3       30.14R
HOT SPRINGS    CLEAR     72  67  84 E5        30.10S
RUSSELLVILLE   PTCLDY    74  70  87 VRB3      30.09R
CLINTON        FAIR      68  68 100 CALM      30.13R FOG
$$

ARZ036-280600-
EAST ARKANSAS

CITY           SKY/WX    TMP DP  RH WIND       PRES   REMARKS
WEST MEMPHIS   PTCLDY    68  68 100 SE3       30.12R
$$

ARZ050-053-066-070-073-280600-
SOUTHWEST ARKANSAS

CITY           SKY/WX    TMP DP  RH WIND       PRES   REMARKS
ARKADELPHIA    FAIR      74  74 100 CALM      30.10S
CAMDEN         PTCLDY    70  66  88 CALM      30.10S
TEXARKANA      PTCLDY    73  69  87 SE5       30.09S
EL DORADO      CLEAR     70  67  90 E3        30.10S
DE QUEEN       FOG       68  68 100 E15       30.07R VSB 1
$$

ARZ056-057-069-280600-
SOUTHEAST ARKANSAS

CITY           SKY/WX    TMP DP  RH WIND       PRES   REMARKS
PINE BLUFF     CLEAR     70  69  97 SE5       30.11S
STUTTGART      CLEAR     72  66  83 SE3       30.12S
MONTICELLO     CLEAR     69  69 100 CALM      30.11S

$$




USA.gov is the U.S. government's official web portal to all federal, state and local government web resources and services.